Temp
-5 -5 -5 -5 -5 -5 -5 -5 -5 -5 -5 -5 -5 -5 -6 -6 -6 -6 -6 -6 -6 -6 -6 -6 -6 -7 -7 -7 -7 -7 -7 -7 -7 -7 -7 -7 -7 -7 -7 -7 -7 -7
-5 -5 -5 -5 -5 -5 -5 -5 -5 -5 -5 -5 -5 -5 -6 -6 -6 -6 -6 -6 -6 -6 -6 -6 -6 -6 -7 -7 -7 -7 -7 -7 -7 -7 -7 -7 -7 -7 -7 -7 -8 -8
-5 -5 -5 -5 -5 -5 -5 -5 -5 -5 -5 -5 -5 -5 -6 -6 -6 -6 -6 -6 -6 -6 -6 -6 -6 -6 -7 -7 -7 -7 -7 -7 -7 -7 -7 -7 -8 -8 -8 -8 -8 -8
-5 -5 -5 -5 -5 -5 -5 -5 -5 -5 -5 -5 -5 -5 -5 -6 -6 -5 -6 -6 -6 -6 -6 -6 -6 -6 -6 -6 -7 -7 -7 -7 -7 -7 -7 -8 -8 -8 -8 -8 -8 -8
-5 -5 -5 -5 -5 -5 -5 -5 -5 -5 -5 -5 -5 -5 -5 -5 -5 -5 -5 -5 -6 -6 -6 -6 -6 -6 -6 -6 -6 -7 -7 -7 -7 -7 -7 -8 -8 -8 -8 -8 -8 -8
-5 -5 -5 -5 -5 -5 -5 -5 -5 -5 -5 -5 -5 -5 -5 -5 -5 -5 -5 -5 -5 -5 -6 -6 -6 -6 -6 -6 -6 -6 -6 -7 -7 -7 -7 -7 -8 -8 -8 -8 -8 -8
-5 -5 -5 -4 -4 -5 -5 -5 -5 -5 -5 -5 -5 -5 -5 -5 -5 -5 -5 -5 -5 -5 -5 -6 -6 -6 -6 -6 -6 -6 -6 -6 -7 -7 -7 -7 -8 -8 -8 -8 -8 -8
-5 -5 -5 -4 -4 -4 -5 -5 -5 -5 -5 -5 -5 -5 -5 -5 -5 -5 -5 -5 -5 -5 -6 -6 -6 -6 -6 -6 -6 -6 -6 -6 -6 -7 -7 -7 -7 -7 -8 -8 -8 -8
-5 -5 -4 -4 -4 -4 -4 -5 -5 -5 -5 -5 -5 -5 -5 -5 -5 -5 -5 -5 -5 -5 -5 -6 -5 -6 -6 -6 -6 -6 -6 -6 -6 -6 -7 -7 -7 -7 -7 -8 -8 -8
-5 -5 -4 -4 -4 -4 -4 -5 -5 -5 -5 -5 -5 -5 -5 -5 -5 -5 -5 -5 -5 -5 -5 -5 -5 -5 -5 -6 -6 -6 -6 -6 -6 -6 -6 -7 -7 -7 -7 -7 -7 -8
-5 -4 -4 -4 -4 -4 -4 -4 -4 -5 -5 -5 -5 -5 -5 -5 -5 -5 -5 -5 -5 -5 -5 -5 -5 -5 -5 -6 -6 -6 -6 -6 -6 -6 -6 -7 -7 -7 -7 -7 -7 -7
-5 -5 -5 -4 -4 -4 -4 -4 -4 -4 -5 -5 -5 -5 -5 -5 -5 -5 -5 -5 -5 -5 -5 -5 -5 -5 -5 -6 -6 -6 -6 -6 -6 -6 -6 -6 -7 -7 -7 -7 -7 -7
-5 -5 -5 -5 -5 -4 -4 -4 -4 -4 -4 -4 -5 -5 -5 -5 -5 -5 -5 -5 -5 -5 -5 -5 -5 -5 -5 -6 -6 -6 -6 -6 -6 -6 -6 -6 -6 -6 -7 -7 -7 -7
-5 -5 -5 -5 -5 -5 -4 -4 -4 -4 -4 -4 -4 -5 -5 -5 -5 -5 -5 -5 -5 -5 -5 -5 -5 -5 -6 -6 -6 -6 -5 -5 -5 -5 -6 -6 -6 -6 -7 -7 -7 -7
-5 -5 -5 -5 -5 -5 -4 -4 -4 -4 -4 -4 -4 -5 -5 -5 -5 -5 -5 -5 -5 -5 -5 -5 -5 -6 -6 -6 -6 -5 -5 -5 -5 -5 -5 -6 -6 -6 -7 -7 -7 -7
-5 -5 -5 -5 -5 -5 -5 -5 -5 -5 -5 -5 -5 -5 -5 -5 -5 -5 -5 -5 -5 -5 -5 -5 -6 -6 -6 -5 -5 -5 -5 -5 -5 -5 -5 -5 -5 -6 -6 -7 -7 -7
-5 -5 -5 -5 -5 -5 -5 -5 -5 -5 -5 -5 -5 -5 -5 -5 -5 -5 -5 -5 -5 -5 -5 -5 -6 -6 -6 -5 -5 -5 -5 -5 -5 -5 -5 -5 -5 -6 -6 -6 -6 -7
-5 -5 -5 -5 -5 -5 -5 -5 -5 -5 -5 -5 -5 -5 -5 -5 -5 -5 -5 -6 -6 -6 -6 -6 -6 -6 -5 -5 -5 -5 -5 -5 -5 -5 -5 -5 -5 -5 -5 -6 -6 -6
-5 -5 -5 -5 -5 -5 -5 -5 -5 -5 -5 -5 -5 -5 -5 -5 -5 -5 -5 -6 -6 -6 -6 -6 -6 -6 -5 -5 -5 -5 -5 -5 -5 -5 -5 -5 -5 -5 -5 -5 -6 -6
-6 -6 -5 -5 -5 -5 -5 -5 -5 -5 -5 -5 -5 -5 -5 -5 -5 -6 -6 -6 -6 -6 -6 -6 -6 -6 -6 -5 -5 -5 -5 -5 -5 -5 -5 -5 -5 -5 -5 -6 -6 -6
-6 -6 -6 -6 -6 -5 -5 -5 -5 -5 -5 -5 -5 -5 -5 -6 -6 -6 -6 -6 -6 -6 -6 -6 -6 -6 -6 -6 -6 -6 -5 -5 -5 -5 -5 -5 -5 -5 -6 -6 -6 -6
-6 -6 -6 -6 -6 -6 -6 -6 -5 -5 -5 -6 -6 -6 -6 -6 -6 -6 -6 -6 -6 -6 -6 -6 -6 -6 -6 -6 -6 -6 -6 -6 -6 -6 -6 -6 -6 -6 -6 -6 -6 -6
-6 -6 -6 -6 -6 -6 -6 -6 -6 -6 -6 -6 -6 -6 -6 -6 -6 -6 -6 -6 -6 -6 -6 -6 -6 -6 -6 -6 -6 -6 -6 -6 -6 -6 -6 -6 -6 -6 -6 -6 -6 -6
-6 -6 -6 -6 -6 -6 -6 -6 -6 -6 -6 -6 -6 -6 -6 -6 -6 -6 -7 -7 -6 -6 -6 -6 -6 -6 -6 -6 -6 -6 -6 -6 -6 -6 -6 -6 -6 -6 -6 -6 -6 -7
-6 -6 -6 -6 -6 -6 -6 -6 -6 -6 -6 -6 -6 -6 -7 -7 -7 -7 -7 -7 -7 -7 -6 -6 -6 -6 -6 -6 -6 -6 -6 -6 -6 -6 -6 -6 -6 -6 -6 -6 -7 -7
-6 -6 -6 -6 -6 -7 -7 -7 -7 -7 -7 -7 -7 -7 -7 -7 -7 -7 -7 -7 -7 -7 -6 -6 -6 -6 -6 -6 -6 -6 -6 -6 -6 -6 -6 -6 -7 -6 -6 -6 -7 -7
Height
5938 5939 5941 5943 5944 5946 5947 5948 5949 5950 5952 5953 5954 5955 5956 5957 5958 5959 5960 5961 5961 5962 5963 5963 5963 5963 5963 5963 5963 5962 5962 5962 5962 5962 5962 5962 5962 5962 5962 5962 5962 5962
5936 5938 5939 5941 5943 5945 5946 5947 5948 5949 5951 5952 5953 5955 5956 5957 5958 5959 5960 5960 5961 5962 5962 5963 5964 5964 5964 5964 5963 5963 5963 5963 5963 5963 5963 5963 5963 5962 5962 5962 5962 5962
5935 5936 5938 5939 5941 5943 5944 5946 5947 5948 5950 5951 5953 5954 5955 5956 5957 5958 5959 5960 5961 5961 5962 5963 5963 5964 5964 5964 5964 5963 5963 5963 5963 5963 5963 5963 5963 5962 5962 5962 5962 5962
5933 5934 5936 5937 5939 5941 5943 5945 5946 5947 5949 5950 5951 5953 5954 5955 5957 5958 5959 5959 5960 5961 5961 5962 5962 5963 5964 5964 5964 5964 5963 5963 5963 5963 5963 5963 5963 5962 5962 5962 5962 5962
5930 5932 5934 5935 5937 5939 5941 5943 5945 5946 5948 5949 5950 5951 5953 5954 5955 5957 5958 5959 5959 5960 5961 5961 5962 5962 5963 5963 5963 5963 5963 5963 5963 5963 5963 5963 5963 5962 5962 5962 5962 5961
5928 5930 5932 5934 5935 5937 5939 5941 5943 5944 5946 5947 5949 5950 5952 5953 5954 5955 5957 5958 5959 5959 5960 5960 5961 5961 5962 5962 5963 5963 5963 5963 5963 5963 5963 5963 5963 5962 5962 5962 5962 5961
5926 5928 5930 5932 5934 5936 5937 5939 5941 5943 5944 5946 5947 5949 5950 5952 5953 5954 5955 5956 5957 5958 5959 5959 5960 5961 5961 5961 5962 5962 5962 5962 5962 5962 5962 5962 5962 5962 5962 5962 5961 5961
5923 5925 5927 5929 5931 5934 5935 5937 5939 5941 5942 5944 5946 5947 5948 5950 5951 5952 5953 5955 5956 5957 5958 5958 5959 5959 5960 5960 5961 5961 5961 5961 5962 5962 5962 5962 5962 5962 5962 5962 5961 5961
5921 5923 5925 5927 5929 5932 5934 5935 5937 5938 5940 5942 5944 5945 5946 5948 5949 5950 5952 5953 5954 5955 5956 5957 5957 5958 5959 5959 5959 5960 5960 5960 5961 5961 5961 5961 5961 5961 5961 5961 5961 5961
5918 5921 5923 5925 5927 5930 5931 5933 5935 5936 5938 5940 5942 5943 5944 5946 5947 5948 5950 5951 5952 5953 5954 5955 5955 5956 5957 5958 5958 5958 5959 5959 5959 5960 5960 5960 5960 5960 5960 5960 5960 5960
5916 5919 5921 5923 5925 5927 5929 5931 5933 5935 5936 5938 5940 5941 5943 5944 5945 5947 5948 5949 5950 5951 5952 5953 5954 5955 5956 5956 5957 5957 5957 5957 5958 5958 5958 5958 5959 5959 5959 5959 5959 5959
5914 5917 5920 5922 5923 5925 5927 5929 5931 5933 5934 5936 5938 5939 5940 5942 5943 5945 5946 5947 5948 5949 5950 5951 5953 5953 5954 5955 5955 5955 5956 5956 5956 5956 5956 5957 5957 5958 5958 5958 5958 5958
5913 5915 5917 5919 5921 5922 5924 5926 5928 5930 5932 5934 5936 5937 5938 5940 5941 5942 5943 5945 5946 5947 5949 5950 5951 5952 5953 5953 5954 5954 5954 5954 5954 5954 5955 5955 5956 5956 5956 5957 5957 5957
5910 5912 5914 5916 5918 5920 5922 5924 5926 5928 5930 5932 5933 5935 5936 5937 5939 5940 5941 5942 5944 5946 5947 5948 5950 5950 5951 5951 5952 5952 5953 5953 5953 5953 5953 5953 5954 5954 5955 5955 5955 5956
5907 5909 5911 5913 5915 5917 5920 5922 5924 5926 5928 5929 5931 5933 5934 5935 5937 5938 5939 5941 5942 5944 5945 5947 5948 5949 5949 5949 5950 5950 5951 5951 5951 5952 5952 5952 5952 5953 5953 5953 5954 5954
5903 5906 5908 5910 5913 5915 5918 5920 5922 5923 5925 5927 5929 5931 5932 5934 5935 5936 5938 5939 5940 5942 5943 5945 5946 5946 5947 5947 5948 5949 5949 5950 5950 5950 5950 5951 5951 5951 5952 5952 5952 5953
5901 5903 5906 5908 5911 5913 5915 5917 5919 5921 5923 5925 5927 5929 5930 5932 5933 5935 5936 5937 5938 5940 5941 5942 5943 5944 5944 5945 5946 5947 5947 5948 5948 5949 5949 5949 5950 5950 5950 5950 5951 5951
5899 5901 5904 5906 5908 5910 5912 5914 5916 5919 5921 5923 5925 5927 5928 5930 5932 5933 5934 5935 5937 5938 5939 5940 5941 5941 5942 5943 5944 5945 5945 5946 5946 5947 5947 5948 5948 5948 5948 5948 5949 5949
5897 5899 5902 5904 5906 5908 5910 5912 5914 5917 5919 5921 5922 5924 5926 5928 5930 5931 5932 5933 5935 5936 5937 5938 5938 5939 5940 5941 5942 5942 5943 5944 5944 5945 5945 5946 5946 5946 5946 5947 5947 5947
5895 5897 5899 5901 5903 5905 5907 5910 5913 5915 5916 5918 5920 5922 5924 5926 5927 5929 5930 5931 5932 5933 5935 5935 5936 5936 5937 5938 5939 5940 5941 5941 5942 5943 5943 5944 5944 5944 5944 5944 5945 5945
5893 5895 5897 5899 5901 5903 5906 5908 5910 5912 5914 5916 5918 5919 5921 5923 5924 5926 5927 5928 5930 5931 5932 5933 5934 5934 5935 5936 5936 5937 5938 5939 5940 5940 5941 5941 5941 5941 5942 5942 5942 5943
5891 5893 5895 5897 5899 5902 5904 5906 5908 5910 5912 5913 5915 5917 5918 5920 5922 5923 5924 5926 5927 5928 5930 5931 5931 5931 5932 5933 5933 5934 5935 5936 5937 5938 5938 5939 5939 5939 5939 5939 5940 5941
5889 5891 5893 5895 5898 5900 5902 5904 5906 5907 5909 5911 5912 5914 5916 5917 5919 5920 5921 5923 5924 5926 5927 5928 5928 5928 5930 5930 5931 5932 5933 5934 5934 5935 5936 5936 5936 5936 5937 5937 5938 5938
5887 5889 5891 5894 5896 5898 5900 5902 5903 5905 5906 5908 5910 5912 5913 5914 5916 5917 5919 5920 5922 5923 5925 5925 5925 5926 5927 5928 5928 5930 5931 5932 5932 5933 5933 5934 5933 5934 5934 5935 5935 5936
5885 5887 5890 5892 5894 5896 5898 5899 5901 5902 5904 5906 5907 5909 5911 5912 5913 5915 5917 5918 5919 5921 5922 5922 5922 5923 5924 5925 5926 5927 5928 5929 5930 5930 5931 5931 5931 5931 5932 5933 5933 5934
5883 5886 5888 5890 5892 5894 5896 5897 5899 5900 5902 5904 5906 5907 5908 5910 5912 5913 5914 5916 5917 5918 5919 5920 5920 5920 5921 5922 5923 5924 5926 5926 5927 5928 5929 5928 5929 5929 5930 5930 5931 5931
Wind_Speed
20 21 21 21 21 20 18 17 16 16 15 14 13 13 13 13 12 11 10 9 8 8 7 6 6 7 8 9 10 10 11 10 10 9 9 8 7 6 6 6 7 7
21 22 22 22 21 20 19 18 17 16 15 14 13 13 13 12 11 10 8 7 6 5 5 4 3 3 3 4 5 7 7 8 8 9 9 9 7 6 5 6 6 7
23 24 23 23 23 22 21 20 18 17 16 15 14 14 13 12 11 10 9 8 6 5 4 4 3 3 2 2 2 3 3 4 5 6 7 8 8 7 5 4 5 6
25 25 25 25 25 24 23 21 20 18 17 16 16 15 14 13 12 11 10 9 8 7 6 5 5 5 4 4 3 3 2 2 2 3 3 4 5 6 5 4 3 4
28 28 27 27 26 25 24 23 22 20 19 18 17 16 15 14 13 12 11 10 9 9 8 7 6 6 6 6 5 5 4 4 3 2 1 1 1 2 3 4 3 2
30 29 29 28 27 26 25 25 24 23 21 20 18 17 17 16 15 13 12 12 11 10 9 8 8 8 7 7 7 7 6 6 5 5 4 4 3 2 1 2 3 2
31 31 30 29 28 28 27 27 26 25 23 22 20 19 18 17 17 15 14 13 12 11 10 9 8 8 8 8 8 8 8 8 7 7 7 6 6 5 4 3 3 2
32 32 32 31 30 29 29 29 28 27 26 24 22 21 20 19 18 17 15 14 13 12 12 11 9 9 9 9 9 9 9 9 9 9 8 8 8 8 6 5 5 4
33 34 33 32 31 31 31 30 30 29 27 25 24 23 22 21 20 18 17 16 15 14 13 12 11 10 9 10 10 10 10 11 11 11 10 10 10 9 8 8 7 6
34 34 34 33 32 32 32 32 31 30 28 27 26 25 24 23 21 19 18 17 17 16 15 14 12 11 10 11 11 11 12 12 12 12 11 11 11 9 9 9 9 8
34 34 33 33 32 33 33 33 32 31 29 28 27 26 25 24 22 21 20 19 19 17 16 15 13 12 11 11 11 12 13 13 13 13 13 12 12 11 11 11 10 9
33 33 33 33 33 34 34 34 33 32 30 29 28 27 26 25 23 22 21 21 20 18 17 15 14 13 12 11 11 12 13 14 15 15 14 14 13 12 12 12 11 10
32 32 33 34 34 35 35 35 34 33 31 30 29 28 27 26 25 24 23 23 21 19 17 16 14 13 13 12 12 13 14 15 16 16 15 15 15 14 14 13 12 11
31 32 33 34 35 35 35 35 35 34 32 31 30 29 28 27 26 25 24 23 21 19 18 16 14 14 13 13 13 13 14 15 16 16 16 16 15 15 14 14 13 12
31 33 34 35 35 35 35 35 35 34 33 32 30 29 29 28 27 26 25 23 21 20 18 16 15 14 15 15 14 13 13 15 15 15 15 15 15 15 15 15 15 14
33 33 34 35 34 34 34 34 35 34 33 32 31 30 29 29 27 26 25 23 22 20 19 17 15 15 16 16 15 14 13 14 15 15 15 14 14 15 16 16 16 15
32 33 34 34 34 34 34 34 34 34 33 32 31 30 29 28 27 26 25 24 23 21 19 18 17 17 18 17 16 15 14 14 15 15 14 13 14 15 16 16 16 16
31 32 33 33 33 34 34 34 34 33 33 31 30 30 29 28 27 26 25 25 24 22 20 19 18 19 18 18 17 16 15 16 16 15 14 13 13 14 15 16 16 17
31 31 32 33 33 34 34 34 33 33 32 31 31 30 29 28 27 26 26 25 24 22 20 20 20 19 19 19 18 17 16 17 17 16 15 14 13 14 15 16 17 17
30 30 31 32 33 33 34 33 32 32 32 31 31 30 28 27 26 26 26 25 23 22 21 20 20 20 20 20 19 18 18 17 17 16 15 14 14 14 15 16 17 17
29 29 30 31 31 32 32 31 31 31 31 31 30 29 27 27 26 26 26 25 23 22 21 21 21 21 21 21 20 20 19 18 18 16 15 14 14 15 15 16 17 17
29 29 29 29 29 29 29 30 30 30 30 30 29 28 27 27 26 26 26 25 24 23 21 21 22 23 22 22 22 21 20 19 18 17 16 16 16 16 16 17 17 17
29 29 29 28 28 27 27 28 29 29 30 29 28 28 27 27 26 26 26 25 24 23 22 22 24 24 23 23 23 22 21 19 19 18 18 17 17 17 17 17 17 17
30 29 29 28 27 26 26 27 28 28 29 28 27 26 26 26 26 26 25 25 24 23 23 24 25 25 25 25 24 23 21 20 20 19 19 18 19 19 18 18 18 19
31 30 28 27 26 25 26 26 26 27 26 26 25 25 25 25 25 24 24 23 23 23 23 24 26 27 26 26 26 25 22 21 21 20 20 20 20 20 20 20 20 20
30 29 27 26 25 25 25 25 25 24 24 23 23 23 23 23 23 22 22 23 23 23 24 25 26 27 28 28 28 26 23 22 22 21 21 22 22 22 21 21 21 21
Wind_Direction
182 186 188 189 190 190 189 186 183 181 179 176 168 157 148 144 144 142 138 135 133 128 122 117 112 108 104 100 96 92 89 85 84 85 87 94 107 124 142 153 158 158
187 189 191 191 193 194 193 191 188 185 183 181 173 162 157 158 160 159 157 159 157 153 150 146 142 137 128 118 109 102 96 90 83 78 77 78 84 99 127 151 164 168
190 193 194 193 194 196 195 194 191 189 187 183 176 173 173 175 177 177 180 185 188 191 191 192 198 204 206 194 160 133 117 103 91 81 73 70 69 73 89 126 157 171
192 195 197 196 196 196 194 193 193 194 191 187 183 182 183 185 188 191 196 203 207 212 215 219 224 228 234 239 234 217 201 171 132 103 80 69 63 60 60 70 113 161
194 196 198 198 197 195 192 192 195 196 195 192 189 188 190 193 197 201 206 213 219 224 228 232 234 236 238 243 246 242 237 232 221 204 185 135 82 58 43 38 47 105
196 198 200 200 197 194 192 193 196 197 197 196 195 195 197 201 205 209 213 220 226 230 233 234 236 238 240 244 247 246 244 243 237 232 228 224 223 228 308 358 9 25
200 200 201 201 198 195 194 195 197 198 198 198 198 200 203 207 211 214 218 223 227 230 232 232 230 233 239 243 245 245 245 244 241 239 236 231 231 232 239 270 309 327
203 202 203 201 199 197 196 197 198 199 200 200 200 203 207 211 214 216 219 222 224 225 228 229 227 228 234 241 246 247 245 244 243 242 239 234 234 235 231 239 260 276
207 206 205 203 201 199 199 200 201 202 202 201 203 206 209 213 215 216 217 219 221 222 224 226 226 226 230 239 248 251 250 247 246 245 240 234 236 237 230 232 245 254
210 209 208 206 202 201 202 203 204 205 204 203 205 208 211 215 215 215 216 217 219 221 223 224 226 227 231 241 249 253 253 252 249 247 242 237 238 238 232 234 245 250
213 212 211 209 206 203 204 206 207 207 206 206 208 211 213 215 216 215 215 217 219 220 221 225 228 231 235 242 248 251 253 253 251 249 245 241 239 237 234 238 245 250
215 214 213 212 209 207 206 208 209 210 209 208 210 213 215 216 217 216 216 218 220 220 222 226 230 234 237 241 245 249 252 253 252 250 248 245 242 239 237 240 244 248
216 216 215 214 213 210 209 209 211 212 211 211 212 214 216 218 218 218 218 219 221 221 223 227 231 235 239 241 243 245 249 251 251 252 251 249 246 243 240 241 243 244
215 216 216 216 215 213 211 211 212 213 214 214 214 215 217 218 220 221 222 222 222 223 226 230 233 237 241 241 241 243 247 249 251 252 253 252 251 248 245 244 243 241
213 214 215 216 216 215 214 213 214 215 216 216 217 217 218 219 221 223 225 225 225 227 230 234 236 238 240 242 242 245 248 250 252 253 253 253 252 251 249 247 245 243
211 212 214 215 217 217 216 216 216 216 217 218 218 219 220 221 222 223 226 228 228 230 233 236 238 238 240 243 246 248 250 252 252 252 253 254 253 250 249 247 246 246
212 212 213 214 216 217 218 218 217 217 218 219 220 221 222 223 223 223 225 226 228 232 235 237 237 237 240 245 249 251 252 252 251 251 253 255 253 249 248 246 245 244
213 214 214 214 215 216 218 218 218 217 219 220 221 222 223 224 224 224 225 225 227 231 235 236 236 238 241 245 249 251 252 252 251 252 254 255 253 249 247 244 241 241
214 215 215 216 216 217 218 218 218 218 219 220 221 222 224 224 225 226 226 227 229 231 233 234 237 240 243 246 249 250 251 252 252 253 255 255 253 249 246 241 238 237
215 215 216 217 218 219 219 219 219 220 221 222 222 224 225 226 227 227 227 229 231 232 233 235 239 243 245 247 249 251 251 252 252 254 256 255 252 248 244 240 237 237
215 216 217 218 219 220 220 220 220 221 222 224 224 226 227 228 228 228 228 229 232 233 234 236 240 244 246 248 250 251 253 253 253 254 255 254 252 248 245 243 242 241
215 216 218 218 220 220 220 220 221 222 223 224 225 226 228 229 229 228 229 230 231 232 234 237 241 244 245 248 250 252 254 255 254 254 254 254 253 251 249 249 249 247
217 218 218 219 219 220 220 221 221 223 225 226 227 228 228 229 229 229 230 231 232 233 233 237 241 244 245 248 250 251 253 254 253 253 255 255 255 255 255 255 254 251
219 220 221 221 220 219 219 220 221 223 225 227 227 228 228 228 229 230 232 234 236 237 237 240 244 247 248 250 252 253 253 252 252 252 254 256 256 257 258 257 255 253
221 222 223 223 221 219 218 219 220 221 223 223 224 225 226 228 230 232 235 238 240 241 241 244 247 250 251 252 254 255 253 251 250 250 252 253 254 257 260 259 258 256
221 223 223 221 219 217 216 216 217 218 219 220 221 224 226 229 232 235 237 239 240 241 242 245 249 252 252 252 254 255 254 252 250 248 250 251 252 256 261 262 261 258